,,,PA_Meas_PMT16A,,PR_Meas_QMR101_102,,RH_Meas_QMH101,,SR_Meas_QMS101,,TA_Meas_QMH101,,GenWind,,GenWind,
date,time,status,PA,status,PR,status,RH,status,SR,status,TA,status,DirAvg,status,SpdAvg,
2010-12-21, 00:00:04,VALID,998.696,VALID,0,VALID,91.0671,VALID,0,VALID,23.836,VALID,17,VALID,1.50117,
2010-12-21, 00:01:04,VALID,998.712,VALID,0,VALID,90.9603,VALID,0,VALID,23.8573,VALID,26,VALID,1.00586,
2010-12-21, 00:02:04,VALID,998.711,VALID,0,VALID,90.9298,VALID,0,VALID,23.8963,VALID,37,VALID,0.811328,
2010-12-21, 00:03:04,VALID,998.679,VALID,0,VALID,90.9298,VALID,0,VALID,23.8963,VALID,12,VALID,0.523438,
2010-12-21, 00:04:04,VALID,998.654,VALID,0,VALID,90.9298,VALID,0,VALID,23.8963,VALID,344,VALID,0.535937,
2010-12-21, 00:05:04,VALID,998.655,VALID,0,VALID,90.9603,VALID,0,VALID,23.8768,VALID,344,VALID,0.500391,
2010-12-21, 00:06:04,VALID,998.656,VALID,0,VALID,90.9527,VALID,0,VALID,23.8768,VALID,344,VALID,0.39375,
2010-12-21, 00:07:04,VALID,998.621,VALID,0,VALID,90.9832,VALID,0,VALID,23.8768,VALID,344,VALID,0.210938,
2010-12-21, 00:08:04,VALID,998.613,VALID,0,VALID,91.0366,VALID,0,VALID,23.8768,VALID,344,VALID,0.003125,
2010-12-21, 00:09:04,VALID,998.606,VALID,0,VALID,91.0519,VALID,0,VALID,23.8768,VALID,344,VALID,0.283594,
2010-12-21, 00:10:04,VALID,998.534,VALID,0,VALID,91.0671,VALID,0,VALID,23.8573,VALID,344,VALID,0.487891,
2010-12-21, 00:11:04,VALID,998.505,VALID,0,VALID,91.0748,VALID,0,VALID,23.8768,VALID,344,VALID,0.365625,
2010-12-21, 00:12:04,VALID,998.464,VALID,0,VALID,91.1434,VALID,0,VALID,23.8768,VALID,344,VALID,0.00703125,
2010-12-21, 00:13:04,VALID,998.456,VALID,0,VALID,91.1434,VALID,0,VALID,23.8768,VALID,344,VALID,0.00234375,
2010-12-21, 00:14:04,VALID,998.394,VALID,0,VALID,91.09,VALID,0,VALID,23.8573,VALID,344,VALID,0.0621094,
2010-12-21, 00:15:04,VALID,998.355,VALID,0,VALID,91.0977,VALID,0,VALID,23.8768,VALID,344,VALID,0.313281,
2010-12-21, 00:16:04,VALID,998.313,VALID,0,VALID,91.1587,VALID,0,VALID,23.8768,VALID,344,VALID,0.01875,
2010-12-21, 00:17:04,VALID,998.292,VALID,0,VALID,91.1663,VALID,0,VALID,23.8963,VALID,344,VALID,0.0957031,
2010-12-21, 00:18:04,VALID,998.296,VALID,0,VALID,91.1511,VALID,0,VALID,23.8768,VALID,344,VALID,0.108594,
2010-12-21, 00:19:04,VALID,998.327,VALID,0,VALID,91.0595,VALID,0,VALID,23.8555,VALID,273,VALID,0.3125,
2010-12-21, 00:20:04,VALID,998.344,VALID,0,VALID,90.9451,VALID,0,VALID,23.8963,VALID,273,VALID,0.364453,
2010-12-21, 00:21:04,VALID,998.384,VALID,0,VALID,90.8154,VALID,0,VALID,23.8963,VALID,273,VALID,0.260547,
2010-12-21, 00:22:04,VALID,998.416,VALID,0,VALID,90.7238,VALID,0,VALID,23.8945,VALID,273,VALID,0.1625,
2010-12-21, 00:23:04,VALID,998.473,VALID,0,VALID,90.6857,VALID,0,VALID,23.9372,VALID,273,VALID,0,
2010-12-21, 00:24:04,VALID,998.479,VALID,0,VALID,90.5865,VALID,0,VALID,23.8963,VALID,273,VALID,0.443359,
2010-12-21, 00:25:04,VALID,998.482,VALID,0,VALID,90.5331,VALID,0,VALID,23.9159,VALID,332,VALID,0.6,
2010-12-21, 00:26:04,VALID,998.494,VALID,0,VALID,90.472,VALID,0,VALID,23.9159,VALID,336,VALID,0.616406,
2010-12-21, 00:27:04,VALID,998.488,VALID,0,VALID,90.4491,VALID,0,VALID,23.9159,VALID,336,VALID,0.946094,
2010-12-21, 00:28:04,VALID,998.432,VALID,0,VALID,90.3728,VALID,0,VALID,23.9354,VALID,338,VALID,0.783203,
2010-12-21, 00:29:04,VALID,998.384,VALID,0,VALID,90.3805,VALID,0,VALID,23.9354,VALID,350,VALID,0.865234,
2010-12-21, 00:30:04,VALID,998.416,VALID,0,VALID,90.3805,VALID,0,VALID,23.9549,VALID,339,VALID,0.722266,
2010-12-21, 00:31:04,VALID,998.402,VALID,0,VALID,90.3271,VALID,0,VALID,23.9354,VALID,332,VALID,0.999219,
2010-12-21, 00:32:04,VALID,998.431,VALID,0,VALID,90.266,VALID,0,VALID,23.9354,VALID,296,VALID,1.09336,
2010-12-21, 00:33:04,VALID,998.422,VALID,0,VALID,90.2203,VALID,0,VALID,23.9549,VALID,311,VALID,0.646094,
2010-12-21, 00:34:04,VALID,998.425,VALID,0,VALID,90.1058,VALID,0,VALID,23.9354,VALID,326,VALID,1.45,
2010-12-21, 00:35:04,VALID,998.454,VALID,0,VALID,90.0371,VALID,0,VALID,23.9549,VALID,343,VALID,0.855469,
2010-12-21, 00:36:04,VALID,998.434,VALID,0,VALID,90.0753,VALID,0,VALID,23.9744,VALID,346,VALID,1.08828,
2010-12-21, 00:37:04,VALID,998.435,VALID,0,VALID,90.1058,VALID,0,VALID,23.9549,VALID,354,VALID,1.25039,
2010-12-21, 00:38:04,VALID,998.371,VALID,0,VALID,90.205,VALID,0,VALID,23.9336,VALID,357,VALID,1.05508,
2010-12-21, 00:39:04,VALID,998.37,VALID,0,VALID,90.2737,VALID,0,VALID,23.9354,VALID,349,VALID,1.03828,
2010-12-21, 00:40:04,VALID,998.29,VALID,0,VALID,90.3957,VALID,0,VALID,23.9159,VALID,350,VALID,1.01914,
2010-12-21, 00:41:04,VALID,998.266,VALID,0,VALID,90.4873,VALID,0,VALID,23.9122,VALID,348,VALID,1.01719,
2010-12-21, 00:42:04,VALID,998.218,VALID,0,VALID,90.5941,VALID,0,VALID,23.914,VALID,345,VALID,1.15859,
2010-12-21, 00:43:04,VALID,998.197,VALID,0,VALID,90.6399,VALID,0,VALID,23.8945,VALID,344,VALID,0.966797,
2010-12-21, 00:44:04,VALID,998.181,VALID,0,VALID,90.7238,VALID,0,VALID,23.914,VALID,344,VALID,0.826172,
2010-12-21, 00:45:04,VALID,998.142,VALID,0,VALID,90.7238,VALID,0,VALID,23.875,VALID,340,VALID,0.537109,
2010-12-21, 00:46:04,VALID,998.124,VALID,0,VALID,90.7009,VALID,0,VALID,23.875,VALID,340,VALID,0.864844,
2010-12-21, 00:47:04,VALID,998.087,VALID,0,VALID,90.7009,VALID,0,VALID,23.875,VALID,340,VALID,0.610547,
2010-12-21, 00:48:04,VALID,998.026,VALID,0,VALID,90.8001,VALID,0,VALID,23.914,VALID,340,VALID,0.476563,
2010-12-21, 00:49:04,VALID,997.994,VALID,0,VALID,90.884,VALID,0,VALID,23.875,VALID,340,VALID,0.358203,
2010-12-21, 00:50:04,VALID,997.989,VALID,0,VALID,90.9298,VALID,0.112286,VALID,23.914,VALID,340,VALID,0.189453,
2010-12-21, 00:51:04,VALID,997.971,VALID,0,VALID,90.9603,VALID,0,VALID,23.8945,VALID,340,VALID,0.0707031,
2010-12-21, 00:52:04,VALID,997.96,VALID,0,VALID,90.9909,VALID,0,VALID,23.8945,VALID,340,VALID,0.392188,
2010-12-21, 00:53:04,VALID,997.961,VALID,0,VALID,90.9222,VALID,0.112286,VALID,23.8732,VALID,340,VALID,0.442578,
2010-12-21, 00:54:04,VALID,997.955,VALID,0,VALID,90.8764,VALID,0,VALID,23.8945,VALID,340,VALID,0.3375,
2010-12-21, 00:55:04,VALID,997.906,VALID,0,VALID,90.8383,VALID,0,VALID,23.8945,VALID,131,VALID,0.776563,
2010-12-21, 00:56:04,VALID,997.933,VALID,0,VALID,90.762,VALID,0,VALID,23.875,VALID,120,VALID,0.549219,
2010-12-21, 00:57:04,VALID,997.898,VALID,0,VALID,90.6704,VALID,0,VALID,23.8768,VALID,119,VALID,0.580859,
2010-12-21, 00:58:04,VALID,997.925,VALID,0,VALID,90.4644,VALID,0,VALID,23.8768,VALID,114,VALID,0.379687,
2010-12-21, 00:59:04,VALID,997.88,VALID,0,VALID,90.2966,VALID,0,VALID,23.8963,VALID,114,VALID,0.456641,
2010-12-21, 01:00:04,VALID,997.88,VALID,0,VALID,90.2355,VALID,0,VALID,23.9159,VALID,174,VALID,0.675781,
2010-12-21, 01:01:04,VALID,997.892,VALID,0,VALID,90.1287,VALID,0,VALID,23.9354,VALID,174,VALID,0.666406,
2010-12-21, 01:02:04,VALID,997.874,VALID,0,VALID,90.0143,VALID,0,VALID,23.9744,VALID,261,VALID,0.757813,
2010-12-21, 01:03:04,VALID,997.858,VALID,0,VALID,89.6633,VALID,0,VALID,23.9939,VALID,294,VALID,0.508984,
2010-12-21, 01:04:04,VALID,997.826,VALID,0,VALID,89.4039,VALID,0,VALID,23.9939,VALID,294,VALID,0.396875,
2010-12-21, 01:05:04,VALID,997.789,VALID,0,VALID,89.4649,VALID,0,VALID,24.0525,VALID,202,VALID,0.650781,
2010-12-21, 01:06:04,VALID,997.727,VALID,0,VALID,89.6862,VALID,0,VALID,24.072,VALID,201,VALID,0.255859,
2010-12-21, 01:07:04,VALID,997.735,VALID,0,VALID,89.793,VALID,0,VALID,24.072,VALID,201,VALID,0.321484,
2010-12-21, 01:08:04,VALID,997.672,VALID,0,VALID,89.9761,VALID,0,VALID,24.0525,VALID,201,VALID,0.302344,
2010-12-21, 01:09:04,VALID,997.641,VALID,0,VALID,90.0066,VALID,0,VALID,24.0329,VALID,201,VALID,0.264453,
2010-12-21, 01:10:04,VALID,997.646,VALID,0,VALID,89.9227,VALID,0,VALID,23.9921,VALID,184,VALID,0.396875,
2010-12-21, 01:11:04,VALID,997.638,VALID,0,VALID,89.8693,VALID,0,VALID,24.0329,VALID,184,VALID,0.289844,
2010-12-21, 01:12:04,VALID,997.651,VALID,0,VALID,89.9303,VALID,0,VALID,24.0311,VALID,176,VALID,0.6,
2010-12-21, 01:13:04,VALID,997.664,VALID,0,VALID,89.9074,VALID,0,VALID,24.0329,VALID,159,VALID,0.425391,
2010-12-21, 01:14:04,VALID,997.657,VALID,0,VALID,89.9227,VALID,0,VALID,24.0329,VALID,159,VALID,0.534375,
2010-12-21, 01:15:04,VALID,997.639,VALID,0,VALID,89.8846,VALID,0,VALID,24.0329,VALID,159,VALID,0.431641,
2010-12-21, 01:16:04,VALID,997.631,VALID,0,VALID,89.9685,VALID,0,VALID,24.0525,VALID,159,VALID,0.249219,
2010-12-21, 01:17:04,VALID,997.662,VALID,0,VALID,90.0295,VALID,0,VALID,24.0329,VALID,159,VALID,0.0128906,
2010-12-21, 01:18:04,VALID,997.678,VALID,0,VALID,90.1058,VALID,0,VALID,24.0525,VALID,159,VALID,0,
2010-12-21, 01:19:04,VALID,997.677,VALID,0,VALID,90.1134,VALID,0,VALID,24.0329,VALID,159,VALID,0.0289063,
2010-12-21, 01:20:04,VALID,997.668,VALID,0,VALID,90.144,VALID,0,VALID,24.0525,VALID,159,VALID,0.30625,
2010-12-21, 01:21:04,VALID,997.688,VALID,0,VALID,90.1668,VALID,0,VALID,24.0525,VALID,159,VALID,0.2125,
2010-12-21, 01:22:04,VALID,997.644,VALID,0,VALID,90.0371,VALID,0,VALID,24.0329,VALID,159,VALID,0,
2010-12-21, 01:23:04,VALID,997.65,VALID,0,VALID,89.9456,VALID,0,VALID,24.0525,VALID,159,VALID,0,
2010-12-21, 01:24:04,VALID,997.665,VALID,0,VALID,89.9227,VALID,0,VALID,24.0329,VALID,159,VALID,0.378125,
2010-12-21, 01:25:04,VALID,997.653,VALID,0,VALID,89.999,VALID,0,VALID,24.072,VALID,157,VALID,0.565625,
2010-12-21, 01:26:04,VALID,997.663,VALID,0,VALID,90.1668,VALID,0,VALID,24.072,VALID,157,VALID,0.335547,
2010-12-21, 01:27:04,VALID,997.722,VALID,0,VALID,90.1897,VALID,0,VALID,24.0915,VALID,157,VALID,0.462891,
2010-12-21, 01:28:04,VALID,997.761,VALID,0,VALID,90.1821,VALID,0,VALID,24.0915,VALID,157,VALID,0.421484,
2010-12-21, 01:29:04,VALID,997.771,VALID,0,VALID,90.1668,VALID,0,VALID,24.0915,VALID,157,VALID,0.413672,
2010-12-21, 01:30:04,VALID,997.794,VALID,0,VALID,90.0829,VALID,0,VALID,24.0915,VALID,157,VALID,0.319531,
2010-12-21, 01:31:04,VALID,997.842,VALID,0,VALID,90.06,VALID,0,VALID,24.0915,VALID,157,VALID,0.48125,
2010-12-21, 01:32:04,VALID,997.828,VALID,0,VALID,90.1821,VALID,0,VALID,24.111,VALID,139,VALID,0.574219,
2010-12-21, 01:33:04,VALID,997.842,VALID,0,VALID,90.3042,VALID,0,VALID,24.1305,VALID,139,VALID,0.571484,
2010-12-21, 01:34:04,VALID,997.832,VALID,0,VALID,90.3805,VALID,0,VALID,24.1305,VALID,68,VALID,0.675,
2010-12-21, 01:35:04,VALID,997.811,VALID,0,VALID,90.4797,VALID,0,VALID,24.15,VALID,66,VALID,0.796484,
2010-12-21, 01:36:04,VALID,997.79,VALID,0,VALID,90.2889,VALID,0,VALID,24.111,VALID,66,VALID,0.566016,
2010-12-21, 01:37:04,VALID,997.783,VALID,0,VALID,90.2203,VALID,0,VALID,24.072,VALID,66,VALID,0.0347656,
2010-12-21, 01:38:04,VALID,997.721,VALID,0,VALID,90.266,VALID,0,VALID,24.072,VALID,66,VALID,0,
2010-12-21, 01:39:04,VALID,997.703,VALID,0,VALID,90.3271,VALID,0,VALID,24.0915,VALID,66,VALID,0,
2010-12-21, 01:40:04,VALID,997.679,VALID,0,VALID,90.411,VALID,0,VALID,24.0701,VALID,66,VALID,0.283984,
2010-12-21, 01:41:04,VALID,997.649,VALID,0,VALID,90.4873,VALID,0,VALID,24.072,VALID,66,VALID,0.192969,
2010-12-21, 01:42:04,VALID,997.672,VALID,0,VALID,90.4797,VALID,0,VALID,24.072,VALID,66,VALID,0.245703,
2010-12-21, 01:43:04,VALID,997.654,VALID,0,VALID,90.4415,VALID,0,VALID,24.0506,VALID,66,VALID,0.208203,
2010-12-21, 01:44:04,VALID,997.655,VALID,0,VALID,90.472,VALID,0,VALID,24.072,VALID,66,VALID,0.307422,
2010-12-21, 01:45:04,VALID,997.657,VALID,0,VALID,90.6017,VALID,0,VALID,24.0701,VALID,355,VALID,0.841797,
2010-12-21, 01:46:04,VALID,997.655,VALID,0,VALID,90.7085,VALID,0,VALID,24.0701,VALID,354,VALID,0.340234,
2010-12-21, 01:47:04,VALID,997.615,VALID,0,VALID,90.7925,VALID,0,VALID,24.0506,VALID,354,VALID,0.222656,
2010-12-21, 01:48:04,VALID,997.59,VALID,0,VALID,90.8993,VALID,0,VALID,24.072,VALID,45,VALID,0.669922,
2010-12-21, 01:49:04,VALID,997.526,VALID,0,VALID,90.9146,VALID,0,VALID,24.0134,VALID,48,VALID,1.08242,
2010-12-21, 01:50:04,VALID,997.514,VALID,0,VALID,90.9527,VALID,0,VALID,23.9939,VALID,57,VALID,0.747656,
2010-12-21, 01:51:04,VALID,997.457,VALID,0,VALID,91.0366,VALID,0,VALID,23.9726,VALID,18,VALID,0.564453,
2010-12-21, 01:52:04,VALID,997.406,VALID,0,VALID,91.1511,VALID,0,VALID,23.9939,VALID,18,VALID,0.253516,
2010-12-21, 01:53:04,VALID,997.372,VALID,0,VALID,91.2197,VALID,0,VALID,23.9744,VALID,18,VALID,0.0949219,
2010-12-21, 01:54:04,VALID,997.346,VALID,0,VALID,91.2579,VALID,0,VALID,23.9549,VALID,18,VALID,0.226172,
2010-12-21, 01:55:04,VALID,997.318,VALID,0,VALID,91.2579,VALID,0,VALID,23.9549,VALID,18,VALID,0.58125,
2010-12-21, 01:56:04,VALID,997.338,VALID,0,VALID,91.2274,VALID,0,VALID,23.9159,VALID,18,VALID,0.310937,
2010-12-21, 01:57:04,VALID,997.362,VALID,0,VALID,91.235,VALID,0,VALID,23.9354,VALID,29,VALID,0.608984,
2010-12-21, 01:58:04,VALID,997.35,VALID,0,VALID,91.2121,VALID,0,VALID,23.9354,VALID,29,VALID,0.573047,
2010-12-21, 01:59:04,VALID,997.4,VALID,0,VALID,91.1968,VALID,0,VALID,23.9159,VALID,29,VALID,0.341016,
2010-12-21, 02:00:04,VALID,997.402,VALID,0,VALID,91.1968,VALID,0,VALID,23.9159,VALID,47,VALID,0.478516,
2010-12-21, 02:01:04,VALID,997.421,VALID,0,VALID,91.1587,VALID,0,VALID,23.9159,VALID,47,VALID,0.551562,
2010-12-21, 02:02:04,VALID,997.407,VALID,0,VALID,91.1587,VALID,0,VALID,23.9354,VALID,47,VALID,0.280469,
2010-12-21, 02:03:04,VALID,997.411,VALID,0,VALID,91.1587,VALID,0,VALID,23.9354,VALID,47,VALID,0.418359,
2010-12-21, 02:04:04,VALID,997.426,VALID,0,VALID,91.0671,VALID,0,VALID,23.875,VALID,47,VALID,0.409766,
2010-12-21, 02:05:04,VALID,997.422,VALID,0,VALID,90.968,VALID,0,VALID,23.8963,VALID,47,VALID,0.135937,
2010-12-21, 02:06:04,VALID,997.411,VALID,0,VALID,90.9298,VALID,0,VALID,23.9159,VALID,126,VALID,0.605859,
2010-12-21, 02:07:04,VALID,997.431,VALID,0,VALID,90.8535,VALID,0,VALID,23.8963,VALID,161,VALID,1.13906,
2010-12-21, 02:08:04,VALID,997.398,VALID,0,VALID,90.678,VALID,0,VALID,23.875,VALID,181,VALID,1.52773,
2010-12-21, 02:09:04,VALID,997.392,VALID,0,VALID,90.4949,VALID,0,VALID,23.9159,VALID,174,VALID,1.06523,
2010-12-21, 02:10:04,VALID,997.387,VALID,0,VALID,90.3271,VALID,0,VALID,23.9354,VALID,171,VALID,1.33516,
2010-12-21, 02:11:04,VALID,997.359,VALID,0,VALID,89.9914,VALID,0,VALID,23.8945,VALID,182,VALID,0.877344,
2010-12-21, 02:12:04,VALID,997.324,VALID,0,VALID,89.7243,VALID,0,VALID,23.914,VALID,175,VALID,0.738672,
2010-12-21, 02:13:04,VALID,997.313,VALID,0,VALID,89.5641,VALID,0,VALID,23.9159,VALID,169,VALID,0.515234,
2010-12-21, 02:14:04,VALID,997.304,VALID,0,VALID,89.5717,VALID,0,VALID,23.9354,VALID,169,VALID,0.565625,
2010-12-21, 02:15:04,VALID,997.269,VALID,0,VALID,89.6023,VALID,0,VALID,23.9354,VALID,146,VALID,0.617969,
2010-12-21, 02:16:04,VALID,997.299,VALID,0,VALID,89.6328,VALID,0,VALID,23.9354,VALID,146,VALID,0.639844,
2010-12-21, 02:17:04,VALID,997.259,VALID,0,VALID,89.6404,VALID,0,VALID,23.9354,VALID,136,VALID,1.22617,
2010-12-21, 02:18:04,VALID,997.243,VALID,0,VALID,89.6709,VALID,0,VALID,23.9354,VALID,136,VALID,0.925,
2010-12-21, 02:19:04,VALID,997.253,VALID,0,VALID,89.648,VALID,0,VALID,23.9549,VALID,136,VALID,0.944922,
2010-12-21, 02:20:04,VALID,997.251,VALID,0,VALID,89.6709,VALID,0,VALID,23.9354,VALID,136,VALID,1.07969,
2010-12-21, 02:21:04,VALID,997.276,VALID,0,VALID,89.8388,VALID,0,VALID,23.9354,VALID,136,VALID,1.15742,
2010-12-21, 02:22:04,VALID,997.297,VALID,0,VALID,90.0143,VALID,0,VALID,23.9354,VALID,136,VALID,1.12891,
2010-12-21, 02:23:04,VALID,997.298,VALID,0,VALID,90.06,VALID,0,VALID,23.9354,VALID,134,VALID,1.09141,
2010-12-21, 02:24:04,VALID,997.322,VALID,0,VALID,90.1287,VALID,0,VALID,23.9159,VALID,137,VALID,1.01719,
2010-12-21, 02:25:04,VALID,997.301,VALID,0,VALID,90.1363,VALID,0,VALID,23.8963,VALID,134,VALID,0.83125,
2010-12-21, 02:26:04,VALID,997.268,VALID,0,VALID,90.2203,VALID,0,VALID,23.8963,VALID,117,VALID,0.871875,
2010-12-21, 02:27:04,VALID,997.244,VALID,0,VALID,90.3423,VALID,0,VALID,23.8963,VALID,105,VALID,0.707422,
2010-12-21, 02:28:04,VALID,997.234,VALID,0,VALID,90.4186,VALID,0,VALID,23.8963,VALID,83,VALID,0.864844,
2010-12-21, 02:29:04,VALID,997.165,VALID,0,VALID,90.4949,VALID,0,VALID,23.8768,VALID,78,VALID,0.955078,
2010-12-21, 02:30:04,VALID,997.162,VALID,0,VALID,90.5102,VALID,0,VALID,23.8768,VALID,78,VALID,0.869531,
2010-12-21, 02:31:04,VALID,997.151,VALID,0,VALID,90.556,VALID,0,VALID,23.8768,VALID,78,VALID,0.859375,
2010-12-21, 02:32:04,VALID,997.185,VALID,0,VALID,90.6475,VALID,0,VALID,23.8768,VALID,78,VALID,0.96875,
2010-12-21, 02:33:04,VALID,997.19,VALID,0,VALID,90.7772,VALID,0,VALID,23.8963,VALID,73,VALID,0.898047,
2010-12-21, 02:34:04,VALID,997.188,VALID,0,VALID,90.9298,VALID,0,VALID,23.8768,VALID,70,VALID,1.23047,
2010-12-21, 02:35:04,VALID,997.206,VALID,0,VALID,91.029,VALID,0,VALID,23.8573,VALID,76,VALID,1.49414,
2010-12-21, 02:36:04,VALID,997.245,VALID,0,VALID,91.1206,VALID,0,VALID,23.8183,VALID,74,VALID,1.39492,
2010-12-21, 02:37:04,VALID,997.258,VALID,0,VALID,91.1663,VALID,0,VALID,23.8183,VALID,71,VALID,1.39297,
2010-12-21, 02:38:04,VALID,997.272,VALID,0,VALID,91.2503,VALID,0,VALID,23.7988,VALID,65,VALID,1.04297,
2010-12-21, 02:39:04,VALID,997.231,VALID,0,VALID,91.2579,VALID,0,VALID,23.7775,VALID,76,VALID,0.898047,
2010-12-21, 02:40:04,VALID,997.252,VALID,0,VALID,91.2655,VALID,0,VALID,23.7793,VALID,79,VALID,1.17344,
2010-12-21, 02:41:04,VALID,997.257,VALID,0,VALID,91.3037,VALID,0,VALID,23.7793,VALID,76,VALID,0.735547,
2010-12-21, 02:42:04,VALID,997.27,VALID,0,VALID,91.3266,VALID,0,VALID,23.7579,VALID,76,VALID,0.398828,
2010-12-21, 02:43:04,VALID,997.294,VALID,0,VALID,91.3494,VALID,0,VALID,23.7597,VALID,76,VALID,0.348828,
2010-12-21, 02:44:04,VALID,997.316,VALID,0,VALID,91.3418,VALID,0,VALID,23.7402,VALID,76,VALID,0.979297,
2010-12-21, 02:45:04,VALID,997.349,VALID,0,VALID,91.3494,VALID,0,VALID,23.7402,VALID,76,VALID,1.00898,
2010-12-21, 02:46:04,VALID,997.37,VALID,0,VALID,91.3647,VALID,0,VALID,23.7402,VALID,80,VALID,0.917969,
2010-12-21, 02:47:04,VALID,997.363,VALID,0,VALID,91.3876,VALID,0,VALID,23.7402,VALID,76,VALID,0.987109,
2010-12-21, 02:48:04,VALID,997.338,VALID,0,VALID,91.3952,VALID,0,VALID,23.7402,VALID,71,VALID,1.26758,
2010-12-21, 02:49:04,VALID,997.323,VALID,0,VALID,91.3647,VALID,0,VALID,23.7402,VALID,60,VALID,1.11641,
2010-12-21, 02:50:04,VALID,997.294,VALID,0,VALID,91.3266,VALID,0,VALID,23.7402,VALID,62,VALID,1.13945,
2010-12-21, 02:51:04,VALID,997.287,VALID,0,VALID,91.2884,VALID,0,VALID,23.7402,VALID,61,VALID,1.04805,
2010-12-21, 02:52:04,VALID,997.239,VALID,0,VALID,91.2426,VALID,0,VALID,23.7597,VALID,59,VALID,0.994531,
2010-12-21, 02:53:04,VALID,997.266,VALID,0,VALID,91.1816,VALID,0,VALID,23.7597,VALID,59,VALID,0.648438,
2010-12-21, 02:54:05,VALID,997.273,VALID,0,VALID,91.1434,VALID,0,VALID,23.7597,VALID,59,VALID,0.782422,
2010-12-21, 02:55:05,VALID,997.29,VALID,0,VALID,91.1129,VALID,0,VALID,23.7402,VALID,59,VALID,0.360156,
2010-12-21, 02:56:05,VALID,997.279,VALID,0,VALID,91.1282,VALID,0,VALID,23.7579,VALID,59,VALID,0.389453,
2010-12-21, 02:57:05,VALID,997.335,VALID,0,VALID,91.1434,VALID,0.112286,VALID,23.7384,VALID,59,VALID,0.446094,
2010-12-21, 02:58:05,VALID,997.374,VALID,0,VALID,91.174,VALID,0,VALID,23.7384,VALID,81,VALID,0.775391,
2010-12-21, 02:59:05,VALID,997.429,VALID,0,VALID,91.1663,VALID,0.112286,VALID,23.7384,VALID,92,VALID,0.808984,
2010-12-21, 03:00:05,VALID,997.464,VALID,0,VALID,91.1816,VALID,0,VALID,23.7384,VALID,96,VALID,0.798047,
2010-12-21, 03:01:05,VALID,997.494,VALID,0,VALID,91.1968,VALID,0.112286,VALID,23.7384,VALID,96,VALID,0.831641,
2010-12-21, 03:02:05,VALID,997.517,VALID,0,VALID,91.2121,VALID,0,VALID,23.7579,VALID,96,VALID,0.929297,
2010-12-21, 03:03:05,VALID,997.524,VALID,0,VALID,91.2274,VALID,0,VALID,23.7579,VALID,85,VALID,1.19414,
2010-12-21, 03:04:05,VALID,997.526,VALID,0,VALID,91.2426,VALID,0.112286,VALID,23.7775,VALID,80,VALID,1.1,
2010-12-21, 03:05:05,VALID,997.535,VALID,0,VALID,91.2579,VALID,0,VALID,23.7579,VALID,76,VALID,1.02109,
2010-12-21, 03:06:05,VALID,997.511,VALID,0,VALID,91.2426,VALID,0,VALID,23.7579,VALID,75,VALID,1.19492,
2010-12-21, 03:07:05,VALID,997.517,VALID,0,VALID,91.2121,VALID,0,VALID,23.7579,VALID,67,VALID,0.900391,
2010-12-21, 03:08:05,VALID,997.499,VALID,0,VALID,91.1968,VALID,0,VALID,23.7579,VALID,72,VALID,0.928125,
2010-12-21, 03:09:05,VALID,997.485,VALID,0,VALID,91.2121,VALID,0,VALID,23.7579,VALID,86,VALID,0.961328,
2010-12-21, 03:10:05,VALID,997.482,VALID,0,VALID,91.1892,VALID,0.112286,VALID,23.7579,VALID,96,VALID,0.635547,
2010-12-21, 03:11:05,VALID,997.431,VALID,0,VALID,91.1968,VALID,0,VALID,23.7579,VALID,92,VALID,0.949219,
2010-12-21, 03:12:05,VALID,997.425,VALID,0,VALID,91.1511,VALID,0,VALID,23.7597,VALID,93,VALID,0.6875,
2010-12-21, 03:13:05,VALID,997.414,VALID,0,VALID,91.1282,VALID,0,VALID,23.7579,VALID,96,VALID,0.842188,
2010-12-21, 03:14:05,VALID,997.401,VALID,0,VALID,91.0443,VALID,0.112286,VALID,23.7384,VALID,98,VALID,1.12734,
2010-12-21, 03:15:05,VALID,997.381,VALID,0,VALID,90.9603,VALID,0,VALID,23.7579,VALID,98,VALID,0.722656,
2010-12-21, 03:16:05,VALID,997.377,VALID,0,VALID,90.9298,VALID,0.112286,VALID,23.7579,VALID,98,VALID,0.630469,
2010-12-21, 03:17:05,VALID,997.412,VALID,0,VALID,90.9069,VALID,0.112286,VALID,23.7579,VALID,80,VALID,0.85625,
2010-12-21, 03:18:05,VALID,997.39,VALID,0,VALID,90.9069,VALID,0,VALID,23.7579,VALID,80,VALID,0.511719,
2010-12-21, 03:19:05,VALID,997.411,VALID,0,VALID,90.9222,VALID,0,VALID,23.7775,VALID,80,VALID,0.250391,
2010-12-21, 03:20:05,VALID,997.431,VALID,0,VALID,90.9451,VALID,0,VALID,23.7579,VALID,80,VALID,0.254297,
2010-12-21, 03:21:05,VALID,997.454,VALID,0,VALID,90.9832,VALID,0,VALID,23.7579,VALID,80,VALID,0.40625,
2010-12-21, 03:22:05,VALID,997.469,VALID,0,VALID,91.0137,VALID,0,VALID,23.7579,VALID,113,VALID,0.74375,
2010-12-21, 03:23:05,VALID,997.477,VALID,0,VALID,90.9909,VALID,0,VALID,23.7579,VALID,117,VALID,1.10312,
2010-12-21, 03:24:05,VALID,997.486,VALID,0,VALID,91.0137,VALID,0,VALID,23.7579,VALID,117,VALID,0.951563,
2010-12-21, 03:25:05,VALID,997.467,VALID,0,VALID,91.0366,VALID,0,VALID,23.7579,VALID,117,VALID,0.972656,
2010-12-21, 03:26:05,VALID,997.45,VALID,0,VALID,91.0595,VALID,0,VALID,23.7775,VALID,120,VALID,1.16133,
2010-12-21, 03:27:05,VALID,997.432,VALID,0,VALID,90.9909,VALID,0,VALID,23.7579,VALID,125,VALID,0.888672,
2010-12-21, 03:28:05,VALID,997.4,VALID,0,VALID,90.968,VALID,0,VALID,23.7793,VALID,125,VALID,0.628516,
2010-12-21, 03:29:05,VALID,997.34,VALID,0,VALID,90.9603,VALID,0,VALID,23.7579,VALID,123,VALID,0.413281,
2010-12-21, 03:30:05,VALID,997.29,VALID,0,VALID,90.9298,VALID,0,VALID,23.7793,VALID,112,VALID,0.05,
2010-12-21, 03:31:05,VALID,997.252,VALID,0,VALID,90.9298,VALID,0,VALID,23.7597,VALID,112,VALID,0.00429688,
2010-12-21, 03:32:05,VALID,997.265,VALID,0,VALID,90.9298,VALID,0,VALID,23.7384,VALID,112,VALID,0,
2010-12-21, 03:33:05,VALID,997.258,VALID,0.5,VALID,90.9222,VALID,0,VALID,23.7579,VALID,112,VALID,0,
2010-12-21, 03:34:05,VALID,997.28,VALID,0,VALID,90.9374,VALID,0.112286,VALID,23.7384,VALID,112,VALID,0,
2010-12-21, 03:35:05,VALID,997.296,VALID,0,VALID,90.9603,VALID,0,VALID,23.7597,VALID,112,VALID,0.566797,
2010-12-21, 03:36:05,VALID,997.317,VALID,0,VALID,90.9832,VALID,0.112286,VALID,23.7384,VALID,112,VALID,0.558984,
2010-12-21, 03:37:05,VALID,997.314,VALID,0,VALID,91.0137,VALID,0,VALID,23.7384,VALID,98,VALID,0.584375,
2010-12-21, 03:38:05,VALID,997.293,VALID,0,VALID,91.0519,VALID,0,VALID,23.7579,VALID,98,VALID,0.590625,
2010-12-21, 03:39:05,VALID,997.25,VALID,0,VALID,91.09,VALID,0.112286,VALID,23.7775,VALID,98,VALID,0.522656,
2010-12-21, 03:40:05,VALID,997.192,VALID,0,VALID,91.1129,VALID,0.112286,VALID,23.7775,VALID,16,VALID,0.764844,
2010-12-21, 03:41:05,VALID,997.134,VALID,0,VALID,91.1282,VALID,0,VALID,23.7384,VALID,16,VALID,0.829687,
2010-12-21, 03:42:05,VALID,997.132,VALID,0,VALID,91.1282,VALID,0.112286,VALID,23.7189,VALID,358,VALID,0.502734,
2010-12-21, 03:43:05,VALID,997.107,VALID,0,VALID,91.1511,VALID,0,VALID,23.7189,VALID,358,VALID,0.479297,
2010-12-21, 03:44:05,VALID,997.126,VALID,0,VALID,91.1968,VALID,0.112286,VALID,23.7189,VALID,358,VALID,0.298438,
2010-12-21, 03:45:05,VALID,997.103,VALID,0,VALID,91.1968,VALID,0.112286,VALID,23.6781,VALID,358,VALID,0,